CW7104 Weather Reports


time (UTC)temp
F
wind
direction
speed
knots
gust
knots
rain 1hr
in
rain 24hr
in
rain mn
in
humidity
%
barometer
mb
20260903205405 100 154 1.7 5.2 0.00 0.00 0.00 38 1013.5
20260903204904 99 195 2.6 7.8 0.00 0.00 0.00 37 1013.5
20260903204404 99 208 1.7 5.2 0.00 0.00 0.00 38 1013.5
20260903203904 98 195 0.0 0.0 0.00 0.00 0.00 39 1013.6
20260903203404 98 206 0.0 0.0 0.00 0.00 0.00 38 1013.6
20260903202904 98 184 0.0 0.0 0.00 0.00 0.00 39 1013.6
20260903202404 99 247 0.0 0.0 0.00 0.00 0.00 37 1013.7
20260903201904 100 212 0.0 0.0 0.00 0.00 0.00 37 1013.7
20260903201404 100 163 0.9 5.2 0.00 0.00 0.00 37 1013.7
20260903200904 101 212 0.0 1.7 0.00 0.00 0.00 37 1013.7
20260903200405 101 207 2.6 8.7 0.00 0.00 0.00 38 1013.7
20260903195404 100 208 0.0 4.3 0.00 0.00 0.00 40 1013.9
20260903194905 100 197 1.7 7.0 0.00 0.00 0.00 39 1013.9
20260903194405 100 191 0.9 5.2 0.00 0.00 0.00 39 1013.9
20260903193905 99 186 0.0 0.0 0.00 0.00 0.00 40 1013.9
20260903192404 99 226 0.0 1.7 0.00 0.00 0.00 39 1014.1
20260903191904 100 222 1.7 7.0 0.00 0.00 0.00 39 1014.1
20260903191404 100 174 0.0 0.0 0.00 0.00 0.00 39 1014.1
20260903190904 99 236 0.0 0.0 0.00 0.00 0.00 40 1014.1
20260903190404 99 248 0.0 0.0 0.00 0.00 0.00 41 1014.2
20260903185905 98 180 0.0 0.0 0.00 0.00 0.00 45 1014.2
20260903185404 97 180 0.0 2.6 0.00 0.00 0.00 44 1014.3
20260903184904 97 272 1.7 5.2 0.00 0.00 0.00 43 1014.4
20260903184404 97 57 0.0 0.0 0.00 0.00 0.00 42 1014.4
20260903183904 98 241 0.0 0.0 0.00 0.00 0.00 44 1014.5
20260903183404 98 241 0.0 0.0 0.00 0.00 0.00 42 1014.4
20260903182405 99 225 0.9 20.0 0.00 0.00 0.00 41 1014.6
20260903180904 98 228 1.7 7.0 0.00 0.00 0.00 42 1014.6
20260903175904 98 242 0.9 6.1 0.00 0.00 0.00 42 1014.7
20260903174904 97 215 0.0 2.6 0.00 0.00 0.00 46 1014.9
20260903174404 96 211 0.9 4.3 0.00 0.00 0.00 46 1015.0
20260903173904 96 244 0.0 0.0 0.00 0.00 0.00 47 1015.1
20260903173404 96 224 0.0 0.0 0.00 0.00 0.00 44 1015.1
20260903172405 97 264 0.0 0.0 0.00 0.00 0.00 44 1015.2
20260903171404 98 241 0.0 5.2 0.00 0.00 0.00 42 1015.3
20260903170904 98 267 0.0 4.3 0.00 0.00 0.00 42 1015.3
20260903170405 98 227 2.6 7.0 0.00 0.00 0.00 44 1015.4
20260903165904 98 138 1.7 7.0 0.00 0.00 0.00 44 1015.4
20260903165404 98 177 0.9 7.0 0.00 0.00 0.00 46 1015.5
20260903164904 98 244 0.0 4.3 0.00 0.00 0.00 47 1015.5
20260903164404 97 252 0.0 0.0 0.00 0.00 0.00 46 1015.6
20260903162904 96 267 2.6 7.0 0.00 0.00 0.00 50 1015.8
20260903162404 96 247 0.0 0.0 0.00 0.00 0.00 50 1015.8
20260903161404 95 228 1.7 6.1 0.00 0.00 0.00 49 1015.9
20260903160904 95 276 0.0 0.0 0.00 0.00 0.00 50 1016.0
20260903155904 94 255 0.0 0.0 0.00 0.00 0.00 52 1016.0
20260903155404 94 234 1.7 6.1 0.00 0.00 0.00 53 1016.0
20260903154904 94 255 0.0 6.1 0.00 0.00 0.00 54 1016.0
20260903153404 93 258 0.9 6.1 0.00 0.00 0.00 55 1016.0
20260903152904 93 266 2.6 7.0 0.00 0.00 0.00 53 1016.1
20260903152405 93 250 2.6 7.0 0.00 0.00 0.00 55 1016.1
20260903150904 91 209 0.0 0.0 0.00 0.00 0.00 58 1016.0
20260903150404 90 200 0.0 0.0 0.00 0.00 0.00 61 1016.1
20260903145904 90 202 0.0 0.0 0.00 0.00 0.00 61 1016.1
20260903145404 89 215 0.0 0.0 0.00 0.00 0.00 63 1016.1
20260903144904 88 215 0.0 0.0 0.00 0.00 0.00 65 1016.1
20260903143904 87 231 0.0 0.0 0.00 0.00 0.00 66 1016.1
20260903143404 86 212 0.0 0.0 0.00 0.00 0.00 67 1016.1
20260903142904 85 156 0.0 0.0 0.00 0.00 0.00 69 1016.1
20260903141903 84 215 0.0 0.0 0.00 0.00 0.00 70 1016.2
20260903141404 84 199 0.0 0.0 0.00 0.00 0.00 71 1016.2
20260903140904 83 233 0.0 0.9 0.00 0.00 0.00 72 1016.2
20260903140404 82 210 0.0 0.0 0.00 0.00 0.00 73 1016.2
20260903135904 82 163 0.0 0.0 0.00 0.00 0.00 75 1016.2
20260903135404 81 163 0.0 0.0 0.00 0.00 0.00 75 1016.2
20260903134904 80 163 0.0 0.0 0.00 0.00 0.00 76 1016.2
20260903134404 80 163 0.0 0.0 0.00 0.00 0.00 77 1016.3
20260903133904 79 163 0.0 0.0 0.00 0.00 0.00 78 1016.4
20260903133403 79 163 0.0 0.0 0.00 0.00 0.00 79 1016.4
20260903132404 78 163 0.0 0.0 0.00 0.00 0.00 80 1016.4
20260903131904 78 167 0.0 0.0 0.00 0.00 0.00 81 1016.5
20260903131404 77 168 0.0 0.0 0.00 0.00 0.00 82 1016.5
20260903130904 77 181 0.0 0.0 0.00 0.00 0.00 82 1016.5
20260903130404 76 182 0.0 0.0 0.00 0.00 0.00 82 1016.4
20260903125904 76 183 0.0 0.0 0.00 0.00 0.00 82 1016.4
20260903124904 75 217 0.0 0.0 0.00 0.00 0.00 82 1016.5
20260903124404 74 217 0.0 0.0 0.00 0.00 0.00 82 1016.5
20260903123904 74 217 0.0 0.0 0.00 0.00 0.00 82 1016.5
20260903123404 74 217 0.0 0.0 0.00 0.00 0.00 82 1016.5
20260903122904 73 225 0.0 0.0 0.00 0.00 0.00 82 1016.4
20260903122403 73 225 0.0 0.0 0.00 0.00 0.00 82 1016.4
20260903121904 73 225 0.0 0.0 0.00 0.00 0.00 82 1016.4
20260903120903 72 225 0.0 0.0 0.00 0.00 0.00 82 1016.3
20260903115903 72 225 0.0 0.0 0.00 0.00 0.00 82 1016.2
20260903115403 72 225 0.0 0.0 0.00 0.00 0.00 82 1016.2
20260903114904 72 225 0.0 0.0 0.00 0.00 0.00 82 1016.2
20260903114404 72 225 0.0 0.0 0.00 0.00 0.00 82 1016.1
20260903113903 71 225 0.0 0.0 0.00 0.00 0.00 82 1016.1
20260903112904 71 225 0.0 0.0 0.00 0.00 0.00 82 1016.1
20260903112404 72 225 0.0 0.0 0.00 0.00 0.00 82 1016.1
20260903111903 72 225 0.0 0.0 0.00 0.00 0.00 82 1016.1
20260903111403 71 225 0.0 0.0 0.00 0.00 0.00 82 1016.0
20260903110903 71 225 0.0 0.0 0.00 0.00 0.00 82 1016.0
20260903103904 72 225 0.0 0.0 0.00 0.00 0.00 82 1015.9
20260903103404 72 225 0.0 0.0 0.00 0.00 0.00 82 1015.9
20260903102904 72 225 0.0 0.0 0.00 0.00 0.00 82 1015.9
20260903102403 72 225 0.0 0.0 0.00 0.00 0.00 82 1015.9
20260903101904 72 225 0.0 0.0 0.00 0.00 0.00 82 1015.8
20260903101404 72 225 0.0 0.0 0.00 0.00 0.00 82 1015.8
20260903100903 72 225 0.0 0.0 0.00 0.00 0.00 82 1015.7
20260903100404 72 225 0.0 0.0 0.00 0.00 0.00 82 1015.7
20260903095403 72 225 0.0 0.0 0.00 0.00 0.00 82 1015.7
20260903094904 72 225 0.0 0.0 0.00 0.00 0.00 82 1015.6
20260903094403 72 225 0.0 0.0 0.00 0.00 0.00 82 1015.6
20260903093904 72 225 0.0 0.0 0.00 0.00 0.00 82 1015.6
20260903093404 72 225 0.0 0.0 0.00 0.00 0.00 82 1015.5
20260903092905 72 225 0.0 0.0 0.00 0.00 0.00 82 1015.6
20260903092404 72 225 0.0 0.0 0.00 0.00 0.00 82 1015.5
20260903091904 72 225 0.0 0.0 0.00 0.00 0.00 82 1015.6
20260903091403 72 225 0.0 0.0 0.00 0.00 0.00 82 1015.5
20260903090905 73 225 0.0 0.0 0.00 0.00 0.00 82 1015.4
20260903090405 73 225 0.0 0.0 0.00 0.00 0.00 81 1015.4
20260903085905 73 225 0.0 0.0 0.00 0.00 0.00 81 1015.4
20260903085405 73 225 0.0 0.0 0.00 0.00 0.00 82 1015.4
20260903084905 73 225 0.0 0.0 0.00 0.00 0.00 82 1015.3
20260903084406 73 225 0.0 0.0 0.00 0.00 0.00 82 1015.3
20260903083905 73 225 0.0 0.0 0.00 0.00 0.00 81 1015.3
20260903083405 73 225 0.0 0.0 0.00 0.00 0.00 81 1015.3
20260903082905 73 225 0.0 0.0 0.00 0.00 0.00 81 1015.2
20260903082405 73 225 0.0 0.0 0.00 0.00 0.00 81 1015.2
20260903081906 73 225 0.0 0.0 0.00 0.00 0.00 81 1015.2
20260903080905 73 225 0.0 0.0 0.00 0.00 0.00 81 1015.3
20260903080405 73 225 0.0 0.0 0.00 0.00 0.00 81 1015.3
20260903075905 73 225 0.0 0.0 0.00 0.00 0.00 81 1015.3
20260903075405 73 225 0.0 0.0 0.00 0.00 0.00 81 1015.3
20260903073906 74 225 0.0 0.0 0.00 0.00 0.00 81 1015.1
20260903073405 74 225 0.0 0.0 0.00 0.00 0.00 81 1015.1
20260903072905 74 225 0.0 0.0 0.00 0.00 0.00 81 1015.1
20260903071405 74 225 0.0 0.0 0.00 0.00 0.00 81 1015.0
20260903070405 74 225 0.0 0.0 0.00 0.00 0.00 80 1015.0
20260903065405 74 225 0.0 0.0 0.00 0.00 0.00 80 1015.0
20260903064905 74 225 0.0 0.0 0.00 0.00 0.00 80 1015.0
20260903064405 74 225 0.0 0.0 0.00 0.00 0.00 80 1015.0
20260903063905 74 225 0.0 0.0 0.00 0.00 0.00 80 1015.1
20260903063405 74 225 0.0 0.0 0.00 0.00 0.00 80 1015.1
20260903062905 74 225 0.0 0.0 0.00 0.00 0.00 80 1015.1
20260903062405 74 225 0.0 0.0 0.00 0.00 0.00 80 1015.2
20260903061905 74 225 0.0 0.0 0.00 0.00 0.00 80 1015.2
20260903061405 75 225 0.0 0.0 0.00 0.00 0.00 79 1015.2
20260903060905 75 225 0.0 0.0 0.00 0.00 0.00 79 1015.2
20260903060405 75 225 0.0 0.0 0.00 0.00 0.00 79 1015.1
20260903055905 75 225 0.0 0.0 0.00 0.00 0.00 79 1015.1
20260903055405 75 225 0.0 0.0 0.00 0.00 0.00 79 1015.2
20260903054905 76 225 0.0 0.0 0.00 0.00 0.00 78 1015.1
20260903054405 76 225 0.0 0.0 0.00 0.00 0.00 78 1015.1
20260903053905 76 225 0.0 0.0 0.00 0.00 0.00 77 1015.2
20260903053404 77 225 0.0 0.0 0.00 0.00 0.00 77 1015.2
20260903052405 77 225 0.0 0.0 0.00 0.00 0.00 77 1015.1
20260903051405 78 225 0.0 0.0 0.00 0.00 0.00 77 1015.1
20260903050405 78 225 0.0 0.0 0.00 0.00 0.00 77 1015.1
20260903045905 78 225 0.0 0.0 0.00 0.00 0.00 77 1015.1
20260903044905 78 225 0.0 0.0 0.00 0.00 0.00 76 1015.1
20260903044405 79 225 0.0 0.0 0.00 0.00 0.00 76 1015.1
20260903043904 79 225 0.0 0.0 0.00 0.00 0.00 75 1015.1
20260903043405 79 225 0.0 0.0 0.00 0.00 0.00 75 1015.0
20260903042905 79 225 0.0 0.0 0.00 0.00 0.00 75 1014.9
20260903042405 79 225 0.0 0.0 0.00 0.00 0.00 74 1015.0
20260903041405 79 225 0.0 0.0 0.00 0.00 0.00 74 1015.0
20260903040904 80 225 0.0 0.0 0.00 0.00 0.00 74 1015.1
20260903040405 80 225 0.0 0.0 0.00 0.00 0.00 73 1015.1
20260903035905 80 225 0.0 0.0 0.00 0.00 0.00 73 1015.0
20260903035404 80 225 0.0 0.0 0.00 0.00 0.00 73 1015.0
20260903034405 80 225 0.0 0.0 0.00 0.00 0.00 72 1015.0
20260903033905 80 225 0.0 0.0 0.00 0.00 0.00 72 1015.0
20260903033405 80 225 0.0 0.0 0.00 0.00 0.00 72 1014.9
20260903032904 80 225 0.0 0.0 0.00 0.00 0.00 72 1015.0
20260903032405 80 225 0.0 0.0 0.00 0.00 0.00 72 1015.0
20260903031905 80 225 0.0 0.0 0.00 0.00 0.00 72 1014.9
20260903031405 80 225 0.0 0.0 0.00 0.00 0.00 72 1015.0
20260903030905 80 225 0.0 0.0 0.00 0.00 0.00 71 1015.1
20260903030405 81 225 0.0 0.0 0.00 0.00 0.00 71 1015.1
20260903024405 82 225 0.0 0.0 0.00 0.00 0.00 69 1014.9
20260903023905 82 225 0.0 0.0 0.00 0.00 0.00 68 1014.9
20260903023405 82 225 0.0 0.0 0.00 0.00 0.00 67 1015.0
20260903022905 83 225 0.0 0.0 0.00 0.00 0.00 66 1015.0
20260903022404 83 225 0.0 0.0 0.00 0.00 0.00 66 1014.9
20260903021905 83 225 0.0 0.0 0.00 0.00 0.00 66 1015.0
20260903021405 83 225 0.0 0.0 0.00 0.00 0.00 66 1014.9
20260903020404 84 225 0.0 0.0 0.00 0.00 0.00 65 1014.9
20260903015905 84 225 0.0 0.0 0.00 0.00 0.00 65 1014.9
20260903015405 84 225 0.0 0.0 0.00 0.00 0.00 64 1014.9
20260903014405 85 225 0.0 0.0 0.00 0.00 0.00 63 1014.8
20260903013904 85 225 0.0 0.0 0.00 0.00 0.00 63 1014.7
20260903013405 85 225 0.0 0.0 0.00 0.00 0.00 62 1014.7
20260903012904 86 225 0.0 0.0 0.00 0.00 0.00 61 1014.6
20260903012404 86 225 0.0 0.0 0.00 0.00 0.00 60 1014.6
20260903011905 87 225 0.0 0.0 0.00 0.00 0.00 60 1014.6
20260903011404 87 225 0.0 0.0 0.00 0.00 0.00 59 1014.6
20260903010905 87 225 0.0 0.0 0.00 0.00 0.00 58 1014.7
20260903005404 89 225 0.0 0.0 0.00 0.00 0.00 55 1014.5
20260903004905 89 225 0.0 0.0 0.00 0.00 0.00 55 1014.5
20260903004405 89 225 0.0 0.0 0.00 0.00 0.00 54 1014.5
20260903003404 90 225 0.0 0.0 0.00 0.00 0.00 53 1014.6
20260903002904 90 225 0.0 0.0 0.00 0.00 0.00 53 1014.6
20260903002405 91 225 0.0 0.0 0.00 0.00 0.00 52 1014.6
20260903001904 91 225 0.0 0.0 0.00 0.00 0.00 52 1014.5
20260903001405 91 225 0.0 0.0 0.00 0.00 0.00 51 1014.5
20260903000905 92 177 0.0 0.0 0.00 0.00 0.00 50 1014.6
20260903000405 92 227 0.0 0.0 0.00 0.00 0.00 49 1014.6
20260902235905 93 227 0.0 1.7 0.00 0.00 0.00 49 1014.6
20260902235405 93 227 0.0 0.0 0.00 0.00 0.00 48 1014.6
20260902234904 94 227 0.0 0.0 0.00 0.00 0.00 47 1014.7
20260902234404 94 182 0.0 0.0 0.00 0.00 0.00 46 1014.7
20260902233905 95 216 0.0 4.3 0.00 0.00 0.00 46 1014.5
20260902233405 95 207 0.0 0.0 0.00 0.00 0.00 46 1014.5
20260902232404 95 182 0.0 2.6 0.00 0.00 0.00 45 1014.4
20260902231904 95 220 0.9 6.1 0.00 0.00 0.00 45 1014.5
20260902231405 95 200 0.0 6.1 0.00 0.00 0.00 45 1014.5
20260902230905 95 220 0.0 4.3 0.00 0.00 0.00 45 1014.6
20260902225904 95 176 0.0 6.1 0.00 0.00 0.00 44 1014.6
20260902225404 95 190 0.9 5.2 0.00 0.00 0.00 44 1014.5
20260902224405 96 232 2.6 8.7 0.00 0.00 0.00 43 1014.5
20260902223404 97 235 0.0 0.0 0.00 0.00 0.00 41 1014.6
20260902222905 98 199 0.0 4.3 0.00 0.00 0.00 41 1014.6
20260902222405 98 161 2.6 7.0 0.00 0.00 0.00 40 1014.6
20260902220905 100 211 0.9 5.2 0.00 0.00 0.00 40 1014.6
20260902220404 100 196 1.7 10.4 0.00 0.00 0.00 40 1014.7
20260902215904 100 195 0.0 5.2 0.00 0.00 0.00 39 1014.6
20260902215404 100 217 1.7 6.1 0.00 0.00 0.00 38 1014.7
20260902214905 100 222 0.0 5.2 0.00 0.00 0.00 39 1014.7
20260902214405 100 212 2.6 8.7 0.00 0.00 0.00 39 1014.7
20260902213904 100 220 0.9 4.3 0.00 0.00 0.00 36 1014.8
20260902213404 100 165 1.7 7.0 0.00 0.00 0.00 35 1014.8
20260902212905 100 214 2.6 7.8 0.00 0.00 0.00 36 1014.8
20260902212405 100 175 0.9 5.2 0.00 0.00 0.00 37 1014.8
20260902211905 100 187 2.6 7.8 0.00 0.00 0.00 37 1014.8
20260902211405 100 205 1.7 7.0 0.00 0.00 0.00 37 1014.9
20260902210405 101 196 2.6 8.7 0.00 0.00 0.00 38 1014.9